"Sample Date","Sample Time","Sample Value","Units","Flow Rate","Sample Interval","Number Channels","Micron Size 0","Counts/Channel 0","Micron Size 1","Counts/Channel 1","Micron Size 2","Counts/Channel 2","Micron Size 3","Counts/Channel 3","Micron Size 4","Counts/Channel 4","Micron Size 5","Counts/Channel 5","Micron Size 6","Counts/Channel 6","Micron Size 7","Counts/Channel 7","Micron Size 8","Counts/Channel 8","Micron Size 9","Counts/Channel 9","Micron Size 10","Counts/Channel 10","Micron Size 11","Counts/Channel 11","Micron Size 12","Counts/Channel 12","Micron Size 13","Counts/Channel 13","Micron Size 14","Counts/Channel 14","Micron Size 15","Counts/Channel 15","Micron Size 16","Counts/Channel 16","Micron Size 17","Counts/Channel 17","Micron Size 18","Counts/Channel 18","Micron Size 19","Counts/Channel 19","Micron Size 20","Counts/Channel 20","Micron Size 21","Counts/Channel 21","Micron Size 22","Counts/Channel 22","Micron Size 23","Counts/Channel 23","Micron Size 24","Counts/Channel 24","Micron Size 25","Counts/Channel 25","Micron Size 26","Counts/Channel 26","Micron Size 27","Counts/Channel 27","Micron Size 28","Counts/Channel 28","Micron Size 29","Counts/Channel 29","Micron Size 30","Counts/Channel 30","Micron Size 31","Counts/Channel 31"
"04/04/08","17:00:04",417271.000,"cc",28287.559,6.00,6,0.100,213755.000,0.200,165490.000,0.300,36309.000,0.500,1344.000,1.000,372.000,5.000,1.000
"04/04/08","17:00:10",451996.000,"cc",28318.432,6.00,6,0.100,273933.000,0.200,153112.000,0.300,23494.000,0.500,1131.000,1.000,325.000,5.000,1.000
"04/04/08","17:00:16",419529.000,"cc",28337.617,6.00,6,0.100,287599.000,0.200,116562.000,0.300,14184.000,0.500,890.000,1.000,294.000,5.000,0
"04/04/08","17:00:22",463961.000,"cc",28298.299,6.00,6,0.100,319205.000,0.200,129049.000,0.300,14467.000,0.500,941.000,1.000,298.000,5.000,1.000
"04/04/08","17:00:28",438942.000,"cc",28269.246,6.00,6,0.100,243337.000,0.200,162625.000,0.300,31205.000,0.500,1341.000,1.000,434.000,5.000,0
"04/04/08","17:00:34",482676.000,"cc",28263.387,6.00,6,0.100,304892.000,0.200,155228.000,0.300,21157.000,0.500,1064.000,1.000,335.000,5.000,0
"04/04/08","17:00:40",456025.000,"cc",28323.471,6.00,6,0.100,275652.000,0.200,154175.000,0.300,24538.000,0.500,1279.000,1.000,381.000,5.000,0
"04/04/08","17:00:46",411291.000,"cc",28342.918,6.00,6,0.100,274567.000,0.200,122988.000,0.300,12501.000,0.500,921.000,1.000,314.000,5.000,0
"04/04/08","17:00:52",395456.000,"cc",28389.607,6.00,6,0.100,223838.000,0.200,148697.000,0.300,21458.000,0.500,1133.000,1.000,330.000,5.000,0
"04/04/08","17:00:58",439753.000,"cc",28276.402,6.00,6,0.100,275620.000,0.200,144093.000,0.300,18569.000,0.500,1116.000,1.000,354.000,5.000,1.000
"04/04/08","17:01:04",388082.000,"cc",28361.332,6.00,6,0.100,251800.000,0.200,122151.000,0.300,12725.000,0.500,1068.000,1.000,338.000,5.000,0
"04/04/08","17:01:10",406502.000,"cc",28278.717,6.00,6,0.100,295713.000,0.200,100780.000,0.300,8786.000,0.500,906.000,1.000,317.000,5.000,0
"04/04/08","17:01:16",354658.000,"cc",28296.385,6.00,6,0.100,288331.000,0.200,60324.000,0.300,4800.000,0.500,876.000,1.000,327.000,5.000,0
"04/04/08","17:01:22",404561.000,"cc",28320.582,6.00,6,0.100,278585.000,0.200,110319.000,0.300,14091.000,0.500,1196.000,1.000,370.000,5.000,0
"04/04/08","17:01:28",396002.000,"cc",28324.262,6.00,6,0.100,299685.000,0.200,86918.000,0.300,8054.000,0.500,992.000,1.000,353.000,5.000,0
"04/04/08","17:01:34",385526.000,"cc",28296.570,6.00,6,0.100,250864.000,0.200,120433.000,0.300,12657.000,0.500,1180.000,1.000,392.000,5.000,0
"04/04/08","17:01:40",408162.000,"cc",28339.545,6.00,6,0.100,270241.000,0.200,123891.000,0.300,12555.000,0.500,1099.000,1.000,375.000,5.000,1.000
"04/04/08","17:01:46",422734.000,"cc",28304.443,6.00,6,0.100,279294.000,0.200,129620.000,0.300,12396.000,0.500,1064.000,1.000,360.000,5.000,0
"04/04/08","17:01:52",496963.000,"cc",28304.871,6.00,6,0.100,341518.000,0.200,139805.000,0.300,14146.000,0.500,1118.000,1.000,376.000,5.000,0
"04/04/08","17:01:58",361299.000,"cc",28334.315,6.00,6,0.100,258348.000,0.200,93968.000,0.300,7731.000,0.500,938.000,1.000,314.000,5.000,0
"04/04/08","17:02:04",425373.000,"cc",28335.826,6.00,6,0.100,290168.000,0.200,123288.000,0.300,10644.000,0.500,942.000,1.000,331.000,5.000,0
"04/04/08","17:02:10",395472.000,"cc",28313.119,6.00,6,0.100,261912.000,0.200,120636.000,0.300,11581.000,0.500,1060.000,1.000,283.000,5.000,0
"04/04/08","17:02:16",454150.000,"cc",28285.768,6.00,6,0.100,342052.000,0.200,102392.000,0.300,8412.000,0.500,973.000,1.000,321.000,5.000,0
"04/04/08","17:02:22",368404.000,"cc",28272.943,6.00,6,0.100,270073.000,0.200,90104.000,0.300,7047.000,0.500,874.000,1.000,306.000,5.000,0
"04/04/08","17:02:28",422440.000,"cc",28302.578,6.00,6,0.100,255732.000,0.200,142438.000,0.300,22248.000,0.500,1525.000,1.000,497.000,5.000,0
"04/04/08","17:02:34",387888.000,"cc",28369.854,6.00,6,0.100,296916.000,0.200,82901.000,0.300,6849.000,0.500,899.000,1.000,323.000,5.000,0
"04/04/08","17:02:40",479812.000,"cc",28341.248,6.00,6,0.100,330181.000,0.200,134890.000,0.300,13242.000,0.500,1157.000,1.000,342.000,5.000,0
"04/04/08","17:02:46",463365.000,"cc",28288.256,6.00,6,0.100,263163.000,0.200,172934.000,0.300,25206.000,0.500,1574.000,1.000,488.000,5.000,0
"04/04/08","17:02:52",472831.000,"cc",28352.457,6.00,6,0.100,281803.000,0.200,167974.000,0.300,21186.000,0.500,1423.000,1.000,445.000,5.000,0
"04/04/08","17:02:58",439021.000,"cc",28369.363,6.00,6,0.100,313689.000,0.200,113614.000,0.300,10470.000,0.500,938.000,1.000,308.000,5.000,2.000
"04/04/08","17:03:04",382193.000,"cc",28296.078,6.00,6,0.100,269873.000,0.200,100808.000,0.300,10222.000,0.500,977.000,1.000,313.000,5.000,0
"04/04/08","17:03:10",388539.000,"cc",28330.229,6.00,6,0.100,290146.000,0.200,89560.000,0.300,7559.000,0.500,941.000,1.000,333.000,5.000,0
"04/04/08","17:03:16",364526.000,"cc",28252.104,6.00,6,0.100,287687.000,0.200,70565.000,0.300,5194.000,0.500,821.000,1.000,259.000,5.000,0
"04/04/08","17:03:22",403023.000,"cc",28339.391,6.00,6,0.100,260776.000,0.200,129015.000,0.300,11798.000,0.500,1079.000,1.000,354.000,5.000,1.000
"04/04/08","17:03:28",434637.000,"cc",28365.379,6.00,6,0.100,263348.000,0.200,153976.000,0.300,15631.000,0.500,1292.000,1.000,390.000,5.000,0
"04/04/08","17:03:34",448629.000,"cc",28313.162,6.00,6,0.100,313969.000,0.200,121607.000,0.300,11573.000,0.500,1116.000,1.000,364.000,5.000,0
"04/04/08","17:03:40",450320.000,"cc",28308.232,6.00,6,0.100,299786.000,0.200,134572.000,0.300,14545.000,0.500,1076.000,1.000,341.000,5.000,0
"04/04/08","17:03:46",418171.000,"cc",28319.770,6.00,6,0.100,286983.000,0.200,117484.000,0.300,12232.000,0.500,1084.000,1.000,388.000,5.000,0
"04/04/08","17:03:52",345986.000,"cc",28346.482,6.00,6,0.100,271278.000,0.200,68493.000,0.300,5100.000,0.500,832.000,1.000,283.000,5.000,0
"04/04/08","17:03:58",237720.000,"cc",28340.186,6.00,6,0.100,166098.000,0.200,64835.000,0.300,5535.000,0.500,939.000,1.000,313.000,5.000,0
"04/04/08","17:04:04",348045.000,"cc",28272.865,6.00,6,0.100,277095.000,0.200,64907.000,0.300,4801.000,0.500,893.000,1.000,349.000,5.000,0
"04/04/08","17:04:10",364725.000,"cc",28288.945,6.00,6,0.100,272650.000,0.200,84393.000,0.300,6336.000,0.500,991.000,1.000,355.000,5.000,0
"04/04/08","17:04:16",450462.000,"cc",28329.014,6.00,6,0.100,329314.000,0.200,110232.000,0.300,9435.000,0.500,1112.000,1.000,368.000,5.000,1.000
"04/04/08","17:04:22",421849.000,"cc",28328.690,6.00,6,0.100,290493.000,0.200,119709.000,0.300,10080.000,0.500,1206.000,1.000,361.000,5.000,0
"04/04/08","17:04:28",377367.000,"cc",28403.975,6.00,6,0.100,273369.000,0.200,95196.000,0.300,7325.000,0.500,1082.000,1.000,394.000,5.000,1.000
"04/04/08","17:04:34",409591.000,"cc",28262.750,6.00,6,0.100,287082.000,0.200,112029.000,0.300,8995.000,0.500,1095.000,1.000,390.000,5.000,0
"04/04/08","17:04:40",325424.000,"cc",28301.719,6.00,6,0.100,264966.000,0.200,55341.000,0.300,3991.000,0.500,813.000,1.000,313.000,5.000,0
"04/04/08","17:04:46",288224.000,"cc",28362.016,6.00,6,0.100,235211.000,0.200,48486.000,0.300,3446.000,0.500,808.000,1.000,273.000,5.000,0
"04/04/08","17:04:52",169720.000,"cc",28311.260,6.00,6,0.100,141798.000,0.200,24809.000,0.300,2007.000,0.500,802.000,1.000,304.000,5.000,0
"04/04/08","17:04:58",211097.000,"cc",28256.207,6.00,6,0.100,175500.000,0.200,32267.000,0.300,2239.000,0.500,803.000,1.000,288.000,5.000,0
"04/04/08","17:05:04",389030.000,"cc",28262.002,6.00,6,0.100,298089.000,0.200,83622.000,0.300,6070.000,0.500,918.000,1.000,331.000,5.000,0
"04/04/08","17:05:10",305112.000,"cc",28326.197,6.00,6,0.100,243721.000,0.200,56204.000,0.300,4047.000,0.500,868.000,1.000,272.000,5.000,0
"04/04/08","17:05:16",418088.000,"cc",28369.412,6.00,6,0.100,323529.000,0.200,86700.000,0.300,6477.000,0.500,1065.000,1.000,317.000,5.000,0
"04/04/08","17:05:22",411927.000,"cc",28284.049,6.00,6,0.100,315064.000,0.200,88985.000,0.300,6554.000,0.500,976.000,1.000,348.000,5.000,0
"04/04/08","17:05:28",341427.000,"cc",28327.731,6.00,6,0.100,271237.000,0.200,64454.000,0.300,4575.000,0.500,838.000,1.000,323.000,5.000,0
"04/04/08","17:05:34",268361.000,"cc",28315.406,6.00,6,0.100,218765.000,0.200,45244.000,0.300,3223.000,0.500,816.000,1.000,313.000,5.000,0
"04/04/08","17:05:40",323485.000,"cc",28304.834,6.00,6,0.100,245215.000,0.200,71525.000,0.300,5451.000,0.500,956.000,1.000,338.000,5.000,0
"04/04/08","17:05:46",428337.000,"cc",28368.402,6.00,6,0.100,315062.000,0.200,103836.000,0.300,7949.000,0.500,1110.000,1.000,380.000,5.000,0
"04/04/08","17:05:52",358940.000,"cc",28327.145,6.00,6,0.100,272475.000,0.200,79425.000,0.300,5831.000,0.500,909.000,1.000,299.000,5.000,1.000
"04/04/08","17:05:58",399667.000,"cc",28355.707,6.00,6,0.100,292755.000,0.200,97870.000,0.300,7703.000,0.500,975.000,1.000,364.000,5.000,0
"04/04/08","17:06:04",408600.000,"cc",28321.199,6.00,6,0.100,300762.000,0.200,98847.000,0.300,7687.000,0.500,984.000,1.000,320.000,5.000,0
"04/04/08","17:06:10",363697.000,"cc",28265.313,6.00,6,0.100,270829.000,0.200,84843.000,0.300,6780.000,0.500,929.000,1.000,316.000,5.000,0
"04/04/08","17:06:16",347898.000,"cc",28344.422,6.00,6,0.100,240984.000,0.200,98063.000,0.300,7517.000,0.500,983.000,1.000,351.000,5.000,0
"04/04/08","17:06:22",201410.000,"cc",28304.525,6.00,6,0.100,165043.000,0.200,32989.000,0.300,2324.000,0.500,788.000,1.000,266.000,5.000,0
"04/04/08","17:06:28",409300.000,"cc",28274.078,6.00,6,0.100,301079.000,0.200,98894.000,0.300,7923.000,0.500,1035.000,1.000,369.000,5.000,0
"04/04/08","17:06:34",351914.000,"cc",28316.348,6.00,6,0.100,246681.000,0.200,96512.000,0.300,7400.000,0.500,971.000,1.000,350.000,5.000,0
"04/04/08","17:06:40",428846.000,"cc",28341.541,6.00,6,0.100,295692.000,0.200,121718.000,0.300,9722.000,0.500,1274.000,1.000,440.000,5.000,0
"04/04/08","17:06:46",353701.000,"cc",28312.330,6.00,6,0.100,285927.000,0.200,62237.000,0.300,4231.000,0.500,963.000,1.000,343.000,5.000,0
"04/04/08","17:06:52",339001.000,"cc",28276.908,6.00,6,0.100,275321.000,0.200,58253.000,0.300,4051.000,0.500,1004.000,1.000,372.000,5.000,0
"04/04/08","17:06:58",334855.000,"cc",28337.973,6.00,6,0.100,269711.000,0.200,59603.000,0.300,4220.000,0.500,980.000,1.000,341.000,5.000,0
"04/04/08","17:07:04",425723.000,"cc",28375.883,6.00,6,0.100,330741.000,0.200,86636.000,0.300,6552.000,0.500,1324.000,1.000,470.000,5.000,0
"04/04/08","17:07:10",315520.000,"cc",28297.025,6.00,6,0.100,239185.000,0.200,69930.000,0.300,4944.000,0.500,1081.000,1.000,380.000,5.000,0
"04/04/08","17:07:16",317393.000,"cc",28296.543,6.00,6,0.100,260304.000,0.200,51921.000,0.300,3779.000,0.500,1033.000,1.000,356.000,5.000,0
"04/04/08","17:07:22",265385.000,"cc",28240.338,6.00,6,0.100,221409.000,0.200,40096.000,0.300,2732.000,0.500,852.000,1.000,296.000,5.000,0
"04/04/08","17:07:28",415058.000,"cc",28352.729,6.00,6,0.100,329078.000,0.200,79036.000,0.300,5615.000,0.500,1005.000,1.000,324.000,5.000,0
"04/04/08","17:07:34",348575.000,"cc",28335.420,6.00,6,0.100,250387.000,0.200,88880.000,0.300,7893.000,0.500,1059.000,1.000,356.000,5.000,0
"04/04/08","17:07:40",300921.000,"cc",28294.898,6.00,6,0.100,233306.000,0.200,59798.000,0.300,6342.000,0.500,1100.000,1.000,375.000,5.000,0
"04/04/08","17:07:46",426491.000,"cc",28312.164,6.00,6,0.100,275509.000,0.200,125136.000,0.300,23700.000,0.500,1672.000,1.000,474.000,5.000,0
"04/04/08","17:07:52",403897.000,"cc",28330.035,6.00,6,0.100,190388.000,0.200,152609.000,0.300,57341.000,0.500,2945.000,1.000,612.000,5.000,2.000
"04/04/08","17:07:58",422431.000,"cc",28291.582,6.00,6,0.100,211793.000,0.200,156548.000,0.300,50743.000,0.500,2729.000,1.000,617.000,5.000,1.000
"04/04/08","17:08:04",399516.000,"cc",28307.484,6.00,6,0.100,191344.000,0.200,147733.000,0.300,56600.000,0.500,3199.000,1.000,639.000,5.000,1.000
"04/04/08","17:08:10",405733.000,"cc",28318.998,6.00,6,0.100,223277.000,0.200,138533.000,0.300,41333.000,0.500,2160.000,1.000,430.000,5.000,0
"04/04/08","17:08:16",422506.000,"cc",28316.357,6.00,6,0.100,210667.000,0.200,153993.000,0.300,54713.000,0.500,2652.000,1.000,481.000,5.000,0
"04/04/08","17:08:22",303669.000,"cc",28326.270,6.00,6,0.100,126304.000,0.200,97915.000,0.300,73756.000,0.500,4991.000,1.000,702.000,5.000,1.000
"04/04/08","17:08:28",415157.000,"cc",28303.914,6.00,6,0.100,230426.000,0.200,142326.000,0.300,39852.000,0.500,2117.000,1.000,435.000,5.000,1.000
"04/04/08","17:08:34",429069.000,"cc",28339.219,6.00,6,0.100,232223.000,0.200,150169.000,0.300,44055.000,0.500,2175.000,1.000,447.000,5.000,0
"04/04/08","17:08:40",430249.000,"cc",28281.244,6.00,6,0.100,219280.000,0.200,155430.000,0.300,52350.000,0.500,2650.000,1.000,537.000,5.000,2.000
"04/04/08","17:08:46",353256.000,"cc",28295.141,6.00,6,0.100,151869.000,0.200,121338.000,0.300,74704.000,0.500,4634.000,1.000,711.000,5.000,0
"04/04/08","17:08:52",368209.000,"cc",28387.428,6.00,6,0.100,165569.000,0.200,131717.000,0.300,66364.000,0.500,3886.000,1.000,673.000,5.000,0
"04/04/08","17:08:58",417390.000,"cc",28330.672,6.00,6,0.100,203582.000,0.200,152866.000,0.300,57332.000,0.500,3055.000,1.000,554.000,5.000,1.000
"04/04/08","17:09:04",381308.000,"cc",28322.699,6.00,6,0.100,173735.000,0.200,136690.000,0.300,66574.000,0.500,3690.000,1.000,619.000,5.000,0
"04/04/08","17:09:10",412004.000,"cc",28260.398,6.00,6,0.100,196895.000,0.200,151470.000,0.300,60026.000,0.500,3090.000,1.000,523.000,5.000,0
"04/04/08","17:09:16",338857.000,"cc",28353.115,6.00,6,0.100,136825.000,0.200,118228.000,0.300,78204.000,0.500,4810.000,1.000,788.000,5.000,2.000
"04/04/08","17:09:22",347989.000,"cc",28313.102,6.00,6,0.100,148362.000,0.200,124353.000,0.300,70574.000,0.500,4053.000,1.000,644.000,5.000,3.000
"04/04/08","17:09:28",402132.000,"cc",28252.045,6.00,6,0.100,190785.000,0.200,147032.000,0.300,60500.000,0.500,3208.000,1.000,607.000,5.000,0
"04/04/08","17:09:34",319138.000,"cc",28258.854,6.00,6,0.100,205768.000,0.200,90794.000,0.300,20614.000,0.500,1574.000,1.000,387.000,5.000,1.000
"04/04/08","17:09:40",367437.000,"cc",28312.223,6.00,6,0.100,203858.000,0.200,116213.000,0.300,44191.000,0.500,2671.000,1.000,502.000,5.000,2.000
"04/04/08","17:09:46",397322.000,"cc",28273.315,6.00,6,0.100,200878.000,0.200,140891.000,0.300,52132.000,0.500,2883.000,1.000,538.000,5.000,0
"04/04/08","17:09:52",424534.000,"cc",28345.135,6.00,6,0.100,260775.000,0.200,132498.000,0.300,28984.000,0.500,1834.000,1.000,442.000,5.000,1.000
"04/04/08","17:09:58",445594.000,"cc",28323.717,6.00,6,0.100,246338.000,0.200,153975.000,0.300,42308.000,0.500,2449.000,1.000,523.000,5.000,1.000
"04/04/08","17:10:04",447475.000,"cc",28362.750,6.00,6,0.100,247659.000,0.200,153963.000,0.300,42695.000,0.500,2619.000,1.000,539.000,5.000,0
"04/04/08","17:10:10",432995.000,"cc",28366.092,6.00,6,0.100,247260.000,0.200,144029.000,0.300,39070.000,0.500,2160.000,1.000,476.000,5.000,0
"04/04/08","17:10:16",437712.000,"cc",28328.688,6.00,6,0.100,276334.000,0.200,132131.000,0.300,27081.000,0.500,1740.000,1.000,426.000,5.000,0
"04/04/08","17:10:22",406860.000,"cc",28289.363,6.00,6,0.100,272462.000,0.200,112242.000,0.300,20125.000,0.500,1604.000,1.000,427.000,5.000,0
"04/04/08","17:10:28",383663.000,"cc",28326.762,6.00,6,0.100,268762.000,0.200,96863.000,0.300,16157.000,0.500,1478.000,1.000,403.000,5.000,0
"04/04/08","17:10:34",390125.000,"cc",28291.580,6.00,6,0.100,269119.000,0.200,101094.000,0.300,17922.000,0.500,1554.000,1.000,436.000,5.000,0
"04/04/08","17:10:40",383673.000,"cc",28311.188,6.00,6,0.100,259181.000,0.200,103203.000,0.300,19210.000,0.500,1624.000,1.000,454.000,5.000,1.000
"04/04/08","17:10:46",457432.000,"cc",28374.996,6.00,6,0.100,252084.000,0.200,158698.000,0.300,43564.000,0.500,2522.000,1.000,564.000,5.000,0
"04/04/08","17:10:52",449604.000,"cc",28278.231,6.00,6,0.100,254713.000,0.200,152665.000,0.300,39458.000,0.500,2258.000,1.000,510.000,5.000,0
"04/04/08","17:10:58",418698.000,"cc",28289.889,6.00,6,0.100,273466.000,0.200,119668.000,0.300,23253.000,0.500,1800.000,1.000,511.000,5.000,0
"04/04/08","17:11:04",335741.000,"cc",28341.309,6.00,6,0.100,233255.000,0.200,85983.000,0.300,14676.000,0.500,1379.000,1.000,448.000,5.000,0
"04/04/08","17:11:10",398102.000,"cc",28335.748,6.00,6,0.100,263750.000,0.200,111323.000,0.300,20779.000,0.500,1739.000,1.000,510.000,5.000,1.000
"04/04/08","17:11:16",407500.000,"cc",28305.994,6.00,6,0.100,277441.000,0.200,108762.000,0.300,19017.000,0.500,1755.000,1.000,525.000,5.000,0
"04/04/08","17:11:22",320648.000,"cc",28284.584,6.00,6,0.100,235052.000,0.200,72503.000,0.300,11279.000,0.500,1387.000,1.000,426.000,5.000,1.000
"04/04/08","17:11:28",342006.000,"cc",28298.594,6.00,6,0.100,247645.000,0.200,79892.000,0.300,12528.000,0.500,1516.000,1.000,425.000,5.000,0
"04/04/08","17:11:34",294024.000,"cc",28345.303,6.00,6,0.100,220421.000,0.200,62843.000,0.300,9224.000,0.500,1199.000,1.000,337.000,5.000,0
"04/04/08","17:11:40",394962.000,"cc",28314.258,6.00,6,0.100,281528.000,0.200,95903.000,0.300,15545.000,0.500,1580.000,1.000,406.000,5.000,0
"04/04/08","17:11:46",431500.000,"cc",28324.000,6.00,6,0.100,277550.000,0.200,124297.000,0.300,27530.000,0.500,1725.000,1.000,398.000,5.000,0
"04/04/08","17:11:52",444116.000,"cc",28310.859,6.00,6,0.100,252164.000,0.200,144210.000,0.300,44825.000,0.500,2400.000,1.000,517.000,5.000,0
"04/04/08","17:11:58",443799.000,"cc",28345.982,6.00,6,0.100,240886.000,0.200,148886.000,0.300,50856.000,0.500,2690.000,1.000,480.000,5.000,1.000
"04/04/08","17:12:04",421882.000,"cc",28285.561,6.00,6,0.100,216943.000,0.200,143856.000,0.300,57462.000,0.500,3081.000,1.000,540.000,5.000,0
"04/04/08","17:12:10",427761.000,"cc",28343.451,6.00,6,0.100,228048.000,0.200,143172.000,0.300,53163.000,0.500,2867.000,1.000,511.000,5.000,0
"04/04/08","17:12:16",421313.000,"cc",28322.869,6.00,6,0.100,211142.000,0.200,146232.000,0.300,60127.000,0.500,3230.000,1.000,582.000,5.000,0
"04/04/08","17:12:22",295262.000,"cc",28302.172,6.00,6,0.100,119341.000,0.200,89998.000,0.300,79362.000,0.500,5816.000,1.000,742.000,5.000,3.000
"04/04/08","17:12:28",410866.000,"cc",28346.666,6.00,6,0.100,214008.000,0.200,140328.000,0.300,53414.000,0.500,2652.000,1.000,462.000,5.000,2.000
"04/04/08","17:12:34",405101.000,"cc",28340.955,6.00,6,0.100,212464.000,0.200,137238.000,0.300,52006.000,0.500,2887.000,1.000,506.000,5.000,0
"04/04/08","17:12:40",420934.000,"cc",28274.828,6.00,6,0.100,236213.000,0.200,136097.000,0.300,45528.000,0.500,2582.000,1.000,514.000,5.000,0
"04/04/08","17:12:46",414951.000,"cc",28307.732,6.00,6,0.100,216258.000,0.200,140096.000,0.300,55108.000,0.500,2926.000,1.000,563.000,5.000,0
"04/04/08","17:12:52",405868.000,"cc",28349.918,6.00,6,0.100,239366.000,0.200,126908.000,0.300,37168.000,0.500,1999.000,1.000,425.000,5.000,2.000
"04/04/08","17:12:58",376314.000,"cc",28274.945,6.00,6,0.100,170923.000,0.200,128258.000,0.300,72833.000,0.500,3729.000,1.000,570.000,5.000,1.000
"04/04/08","17:13:04",311638.000,"cc",28243.113,6.00,6,0.100,122402.000,0.200,100352.000,0.300,83342.000,0.500,4850.000,1.000,692.000,5.000,0
"04/04/08","17:13:10",320826.000,"cc",28377.576,6.00,6,0.100,180119.000,0.200,94058.000,0.300,43529.000,0.500,2650.000,1.000,470.000,5.000,0
"04/04/08","17:13:16",413826.000,"cc",28328.690,6.00,6,0.100,241670.000,0.200,130219.000,0.300,39521.000,0.500,2030.000,1.000,384.000,5.000,2.000
"04/04/08","17:13:22",405766.000,"cc",28252.764,6.00,6,0.100,212000.000,0.200,138325.000,0.300,52480.000,0.500,2511.000,1.000,450.000,5.000,0
"04/04/08","17:13:28",407068.000,"cc",28358.412,6.00,6,0.100,210592.000,0.200,137738.000,0.300,55559.000,0.500,2726.000,1.000,453.000,5.000,0
"04/04/08","17:13:34",378422.000,"cc",28311.656,6.00,6,0.100,164091.000,0.200,135389.000,0.300,74612.000,0.500,3689.000,1.000,641.000,5.000,0
"04/04/08","17:13:40",383680.000,"cc",28357.299,6.00,6,0.100,168159.000,0.200,138167.000,0.300,72988.000,0.500,3678.000,1.000,686.000,5.000,2.000
"04/04/08","17:13:46",402451.000,"cc",28339.119,6.00,6,0.100,198861.000,0.200,140320.000,0.300,59776.000,0.500,2969.000,1.000,525.000,5.000,0
"04/04/08","17:13:52",401870.000,"cc",28304.033,6.00,6,0.100,204242.000,0.200,135944.000,0.300,58122.000,0.500,3018.000,1.000,542.000,5.000,2.000
"04/04/08","17:13:58",403673.000,"cc",28307.244,6.00,6,0.100,197514.000,0.200,143629.000,0.300,58895.000,0.500,3067.000,1.000,568.000,5.000,0
"04/04/08","17:14:04",394595.000,"cc",28276.315,6.00,6,0.100,240633.000,0.200,121782.000,0.300,30079.000,0.500,1706.000,1.000,393.000,5.000,2.000
"04/04/08","17:14:10",427809.000,"cc",28374.281,6.00,6,0.100,234450.000,0.200,144699.000,0.300,45754.000,0.500,2415.000,1.000,490.000,5.000,1.000
"04/04/08","17:14:16",430653.000,"cc",28323.885,6.00,6,0.100,227031.000,0.200,149731.000,0.300,50770.000,0.500,2587.000,1.000,534.000,5.000,0
"04/04/08","17:14:22",389229.000,"cc",28303.023,6.00,6,0.100,221788.000,0.200,123857.000,0.300,40766.000,0.500,2327.000,1.000,489.000,5.000,2.000
"04/04/08","17:14:28",402722.000,"cc",28318.299,6.00,6,0.100,190265.000,0.200,144519.000,0.300,64008.000,0.500,3315.000,1.000,615.000,5.000,0
"04/04/08","17:14:34",433014.000,"cc",28247.520,6.00,6,0.100,224398.000,0.200,153734.000,0.300,51753.000,0.500,2659.000,1.000,470.000,5.000,0
"04/04/08","17:14:40",431045.000,"cc",28341.430,6.00,6,0.100,224184.000,0.200,150750.000,0.300,52244.000,0.500,3182.000,1.000,685.000,5.000,0
"04/04/08","17:14:46",438468.000,"cc",28366.279,6.00,6,0.100,238542.000,0.200,149458.000,0.300,46750.000,0.500,3010.000,1.000,707.000,5.000,1.000
"04/04/08","17:14:52",408899.000,"cc",28305.486,6.00,6,0.100,205029.000,0.200,143607.000,0.300,56266.000,0.500,3272.000,1.000,724.000,5.000,1.000
"04/04/08","17:14:58",444504.000,"cc",28216.084,6.00,6,0.100,257956.000,0.200,146483.000,0.300,37462.000,0.500,2098.000,1.000,504.000,5.000,1.000
"04/04/08","17:15:04",373600.000,"cc",28299.518,6.00,6,0.100,160594.000,0.200,136386.000,0.300,72177.000,0.500,3739.000,1.000,703.000,5.000,1.000
"04/04/08","17:15:10",412017.000,"cc",28310.121,6.00,6,0.100,211006.000,0.200,146756.000,0.300,51014.000,0.500,2702.000,1.000,539.000,5.000,0
"04/04/08","17:15:16",425993.000,"cc",28361.512,6.00,6,0.100,219416.000,0.200,152372.000,0.300,50858.000,0.500,2751.000,1.000,596.000,5.000,0
"04/04/08","17:15:22",419187.000,"cc",28291.102,6.00,6,0.100,234837.000,0.200,141072.000,0.300,40395.000,0.500,2332.000,1.000,550.000,5.000,1.000
"04/04/08","17:15:28",358527.000,"cc",28303.943,6.00,6,0.100,242882.000,0.200,96640.000,0.300,17296.000,0.500,1343.000,1.000,366.000,5.000,0
"04/04/08","17:15:34",420038.000,"cc",28332.930,6.00,6,0.100,235224.000,0.200,140222.000,0.300,42174.000,0.500,1992.000,1.000,426.000,5.000,0
"04/04/08","17:15:40",404077.000,"cc",28315.154,6.00,6,0.100,232870.000,0.200,130473.000,0.300,38384.000,0.500,1973.000,1.000,376.000,5.000,1.000
"04/04/08","17:15:46",370766.000,"cc",28357.826,6.00,6,0.100,160814.000,0.200,128518.000,0.300,77149.000,0.500,3682.000,1.000,603.000,5.000,0